DCS642 LSMD-LFLU

Flight info

Callsign DCS642
Flight time 0h 48m
Altitude 29000
Route WIL DCT BERSU DCT INCUS DCT ROMAM
Aircraft P180/L-SBDFGM3RWXY/LB1

Departure

Time 2026-04-29 18:19
Airport Dübendorf Air Base (LSMD)

Arrival

Time 2026-04-29 19:08
Airport Valence-Chabeuil Airport (LFLU)
Time Latitude Longitude Altitude Speed Heading
2026-04-29 18:00 47.40613 8.63331 1425 ft 0 kts 138°
2026-04-29 18:16 47.40592 8.63334 1424 ft 5 kts 217°
2026-04-29 18:16 47.40561 8.63277 1423 ft 9 kts 234°
2026-04-29 18:16 47.40522 8.63199 1423 ft 7 kts 225°
2026-04-29 18:16 47.40479 8.63214 1422 ft 8 kts 161°
2026-04-29 18:17 47.40434 8.63157 1421 ft 10 kts 233°
2026-04-29 18:17 47.40387 8.63060 1420 ft 13 kts 233°
2026-04-29 18:17 47.40326 8.63059 1419 ft 10 kts 143°
2026-04-29 18:17 47.40266 8.63127 1419 ft 11 kts 142°
2026-04-29 18:18 47.40213 8.63190 1422 ft 8 kts 138°
2026-04-29 18:18 47.40190 8.63243 1422 ft 0 kts 108°
2026-04-29 18:18 47.40176 8.63308 1422 ft 35 kts 108°
2026-04-29 18:19 47.40028 8.63994 1431 ft 100 kts 107°
2026-04-29 18:19 47.39784 8.65099 1672 ft 120 kts 108°
2026-04-29 18:19 47.39514 8.66343 2096 ft 133 kts 105°
2026-04-29 18:19 47.39217 8.67646 2631 ft 137 kts 104°
2026-04-29 18:20 47.38901 8.69113 3042 ft 164 kts 103°
2026-04-29 18:20 47.38534 8.70758 3714 ft 169 kts 105°
2026-04-29 18:20 47.38173 8.72404 4506 ft 169 kts 105°
2026-04-29 18:20 47.37808 8.74040 5221 ft 171 kts 107°
2026-04-29 18:21 47.37149 8.75517 5946 ft 179 kts 136°
2026-04-29 18:21 47.36016 8.76392 6651 ft 187 kts 164°
2026-04-29 18:21 47.34694 8.76319 7293 ft 197 kts 193°
2026-04-29 18:21 47.33522 8.75294 7968 ft 202 kts 216°
2026-04-29 18:22 47.32400 8.74027 8615 ft 205 kts 214°
2026-04-29 18:22 47.31257 8.72766 9268 ft 206 kts 215°
2026-04-29 18:22 47.30052 8.71422 9939 ft 208 kts 216°
2026-04-29 18:22 47.28941 8.70076 10512 ft 210 kts 229°
2026-04-29 18:23 47.28401 8.68125 11017 ft 212 kts 261°
2026-04-29 18:23 47.28121 8.66001 11606 ft 211 kts 257°
2026-04-29 18:23 47.27680 8.63922 12125 ft 214 kts 253°
2026-04-29 18:23 47.27233 8.61823 12619 ft 215 kts 256°
2026-04-29 18:24 47.26819 8.59710 13176 ft 212 kts 256°
2026-04-29 18:24 47.26406 8.57626 13768 ft 209 kts 255°
2026-04-29 18:24 47.25993 8.55560 14168 ft 210 kts 256°
2026-04-29 18:24 47.25582 8.53488 14446 ft 212 kts 256°
2026-04-29 18:25 47.25152 8.51337 14834 ft 213 kts 256°
2026-04-29 18:25 47.24733 8.49250 15293 ft 213 kts 256°
2026-04-29 18:25 47.24315 8.47155 15713 ft 213 kts 256°
2026-04-29 18:25 47.23894 8.45060 16125 ft 214 kts 256°
2026-04-29 18:26 47.23476 8.42962 16534 ft 214 kts 256°
2026-04-29 18:26 47.23058 8.40888 16935 ft 215 kts 256°
2026-04-29 18:26 47.22628 8.38753 17365 ft 215 kts 256°
2026-04-29 18:26 47.22204 8.36639 17835 ft 216 kts 256°
2026-04-29 18:27 47.21767 8.34475 18440 ft 216 kts 257°
2026-04-29 18:27 47.21343 8.32374 18867 ft 217 kts 257°
2026-04-29 18:27 47.20915 8.30243 19295 ft 218 kts 257°
2026-04-29 18:27 47.20481 8.28107 19736 ft 218 kts 257°
2026-04-29 18:28 47.20049 8.25963 20155 ft 220 kts 257°
2026-04-29 18:28 47.19611 8.23806 20574 ft 221 kts 257°
2026-04-29 18:28 47.19166 8.21608 21014 ft 222 kts 258°
2026-04-29 18:28 47.18724 8.19431 21463 ft 223 kts 258°
2026-04-29 18:29 47.18280 8.17246 21907 ft 224 kts 258°
2026-04-29 18:29 47.17986 8.15796 22213 ft 224 kts 258°
2026-04-29 18:29 47.17385 8.12849 22843 ft 226 kts 258°
2026-04-29 18:29 47.16934 8.10636 23317 ft 227 kts 258°
2026-04-29 18:30 47.16479 8.08411 23778 ft 228 kts 259°
2026-04-29 18:30 47.16029 8.06207 24178 ft 229 kts 258°
2026-04-29 18:30 47.15570 8.03963 24597 ft 230 kts 258°
2026-04-29 18:30 47.15108 8.01710 25017 ft 231 kts 258°
2026-04-29 18:31 47.14646 7.99445 25436 ft 232 kts 258°
2026-04-29 18:31 47.14178 7.97172 25861 ft 233 kts 258°
2026-04-29 18:31 47.13687 7.94897 26296 ft 236 kts 253°
2026-04-29 18:31 47.12746 7.92867 26739 ft 248 kts 234°
2026-04-29 18:32 47.11540 7.91041 27181 ft 250 kts 233°
2026-04-29 18:32 47.09125 7.87338 28057 ft 253 kts 233°
2026-04-29 18:32 47.07880 7.85432 28530 ft 255 kts 233°
2026-04-29 18:33 47.06652 7.83551 28989 ft 256 kts 233°
2026-04-29 18:33 47.05406 7.81642 29113 ft 271 kts 233°
2026-04-29 18:33 47.04068 7.79588 29125 ft 287 kts 232°
2026-04-29 18:33 47.02647 7.77416 29119 ft 303 kts 232°
2026-04-29 18:34 47.01148 7.75138 29118 ft 317 kts 232°
2026-04-29 18:34 47.00626 7.74343 29120 ft 321 kts 232°
2026-04-29 18:34 46.97972 7.70303 29120 ft 341 kts 231°
2026-04-29 18:34 46.96303 7.67764 29112 ft 351 kts 231°
2026-04-29 18:35 46.92852 7.62520 29110 ft 367 kts 231°
2026-04-29 18:35 46.89252 7.57074 29103 ft 378 kts 230°
2026-04-29 18:36 46.85555 7.51464 29109 ft 385 kts 230°
2026-04-29 18:36 46.82444 7.46786 29111 ft 388 kts 230°
2026-04-29 18:37 46.78679 7.41093 29110 ft 391 kts 230°
2026-04-29 18:37 46.74261 7.34462 29109 ft 393 kts 230°
2026-04-29 18:38 46.70461 7.28758 29092 ft 391 kts 230°
2026-04-29 18:38 46.67316 7.24062 29092 ft 389 kts 230°
2026-04-29 18:39 46.63556 7.18422 29093 ft 388 kts 230°
2026-04-29 18:39 46.59761 7.12784 29090 ft 387 kts 230°
2026-04-29 18:40 46.56002 7.07176 29087 ft 387 kts 230°
2026-04-29 18:40 46.52240 7.01597 29084 ft 386 kts 230°
2026-04-29 18:41 46.44723 6.90468 29087 ft 386 kts 230°
2026-04-29 18:42 46.40981 6.84956 29080 ft 386 kts 229°
2026-04-29 18:42 46.37230 6.79417 29080 ft 385 kts 229°
2026-04-29 18:43 46.33461 6.73900 29077 ft 385 kts 229°
2026-04-29 18:43 46.29674 6.68337 29081 ft 386 kts 229°
2026-04-29 18:44 46.25895 6.62808 29074 ft 386 kts 229°
2026-04-29 18:44 46.22115 6.57287 29074 ft 386 kts 229°
2026-04-29 18:45 46.18331 6.51782 29084 ft 386 kts 229°
2026-04-29 18:45 46.14545 6.46268 29073 ft 387 kts 228°
2026-04-29 18:46 46.10746 6.40758 29084 ft 388 kts 228°
2026-04-29 18:46 46.06987 6.35321 28692 ft 387 kts 228°
2026-04-29 18:47 46.05089 6.32558 28186 ft 388 kts 228°
2026-04-29 18:47 46.03182 6.29815 27681 ft 388 kts 227°
2026-04-29 18:47 46.01278 6.27081 27173 ft 387 kts 227°
2026-04-29 18:47 45.99381 6.24332 26659 ft 387 kts 227°
2026-04-29 18:48 45.97486 6.21592 26155 ft 387 kts 227°
2026-04-29 18:48 45.95552 6.18830 25639 ft 386 kts 227°
2026-04-29 18:48 45.93649 6.16105 25134 ft 386 kts 227°
2026-04-29 18:48 45.91785 6.13410 24629 ft 385 kts 227°
2026-04-29 18:49 45.89796 6.10556 24096 ft 384 kts 226°
2026-04-29 18:49 45.87948 6.07923 23594 ft 383 kts 226°
2026-04-29 18:49 45.86094 6.05268 23061 ft 380 kts 226°
2026-04-29 18:49 45.84293 6.02525 22559 ft 376 kts 229°
2026-04-29 18:50 45.82528 5.99783 22065 ft 372 kts 227°
2026-04-29 18:50 45.80725 5.97135 21575 ft 369 kts 227°
2026-04-29 18:50 45.78892 5.94383 21070 ft 366 kts 228°
2026-04-29 18:50 45.77248 5.91807 20606 ft 363 kts 229°
2026-04-29 18:51 45.75532 5.89169 20128 ft 360 kts 227°
2026-04-29 18:51 45.73804 5.86589 19652 ft 358 kts 227°
2026-04-29 18:51 45.72098 5.84016 19181 ft 353 kts 227°
2026-04-29 18:51 45.70471 5.81511 18727 ft 343 kts 227°
2026-04-29 18:52 45.68855 5.79050 18279 ft 335 kts 227°
2026-04-29 18:52 45.67265 5.76668 17822 ft 327 kts 227°
2026-04-29 18:52 45.65719 5.74328 17387 ft 320 kts 227°
2026-04-29 18:52 45.64209 5.72027 16968 ft 315 kts 227°
2026-04-29 18:53 45.62721 5.69783 16558 ft 308 kts 226°
2026-04-29 18:53 45.61259 5.67586 16153 ft 302 kts 226°
2026-04-29 18:53 45.59825 5.65415 15756 ft 298 kts 226°
2026-04-29 18:53 45.58411 5.63276 15363 ft 295 kts 226°
2026-04-29 18:54 45.57023 5.61196 14964 ft 292 kts 226°
2026-04-29 18:54 45.55641 5.59113 14581 ft 287 kts 226°
2026-04-29 18:54 45.54281 5.57061 14207 ft 283 kts 226°
2026-04-29 18:54 45.52933 5.55041 13833 ft 280 kts 226°
2026-04-29 18:55 45.51601 5.53042 13442 ft 276 kts 226°
2026-04-29 18:55 45.50295 5.51079 13077 ft 270 kts 226°
2026-04-29 18:55 45.49011 5.49150 12722 ft 266 kts 226°
2026-04-29 18:55 45.47744 5.47256 12374 ft 263 kts 225°
2026-04-29 18:56 45.46492 5.45382 12029 ft 259 kts 226°
2026-04-29 18:56 45.45272 5.43556 11691 ft 256 kts 226°
2026-04-29 18:56 45.44058 5.41734 11330 ft 251 kts 225°
2026-04-29 18:56 45.42863 5.39952 10997 ft 247 kts 225°
2026-04-29 18:57 45.41682 5.38192 10668 ft 244 kts 225°
2026-04-29 18:57 45.40519 5.36450 10351 ft 242 kts 225°
2026-04-29 18:57 45.39360 5.34723 10033 ft 240 kts 225°
2026-04-29 18:57 45.38211 5.33011 9700 ft 238 kts 225°
2026-04-29 18:58 45.37072 5.31312 9380 ft 236 kts 225°
2026-04-29 18:58 45.35942 5.29633 9067 ft 234 kts 225°
2026-04-29 18:58 45.34834 5.27980 8763 ft 234 kts 225°
2026-04-29 18:58 45.33708 5.26308 8453 ft 234 kts 225°
2026-04-29 18:59 45.32584 5.24638 8146 ft 234 kts 225°
2026-04-29 18:59 45.31461 5.22971 7837 ft 233 kts 225°
2026-04-29 18:59 45.30343 5.21308 7529 ft 233 kts 225°
2026-04-29 18:59 45.29226 5.19652 7225 ft 232 kts 225°
2026-04-29 19:00 45.28111 5.18000 6923 ft 231 kts 225°
2026-04-29 19:00 45.27000 5.16354 6612 ft 231 kts 224°
2026-04-29 19:00 45.25907 5.14733 6305 ft 231 kts 224°
2026-04-29 19:00 45.24796 5.13092 5990 ft 230 kts 224°
2026-04-29 19:01 45.23690 5.11457 5686 ft 229 kts 225°
2026-04-29 19:01 45.22587 5.09824 5379 ft 229 kts 225°
2026-04-29 19:01 45.21486 5.08197 5069 ft 228 kts 225°
2026-04-29 19:01 45.20392 5.06582 4768 ft 226 kts 225°
2026-04-29 19:02 45.19308 5.04984 4463 ft 224 kts 225°
2026-04-29 19:02 45.18596 5.03935 4266 ft 222 kts 225°
2026-04-29 19:02 45.17052 5.01925 3903 ft 214 kts 206°
2026-04-29 19:02 45.15654 5.01517 3890 ft 202 kts 185°
2026-04-29 19:03 45.14243 5.01266 3889 ft 206 kts 188°
2026-04-29 19:03 45.12815 5.00968 3826 ft 211 kts 188°
2026-04-29 19:03 45.11350 5.00680 3683 ft 212 kts 187°
2026-04-29 19:03 45.09900 5.00406 3516 ft 207 kts 187°
2026-04-29 19:04 45.08516 5.00139 3346 ft 200 kts 188°
2026-04-29 19:04 45.07156 4.99879 3171 ft 195 kts 188°
2026-04-29 19:04 45.05837 4.99624 3026 ft 188 kts 188°
2026-04-29 19:04 45.04536 4.99368 2794 ft 189 kts 188°
2026-04-29 19:05 45.03288 4.99129 2541 ft 168 kts 188°
2026-04-29 19:05 45.02200 4.98921 2340 ft 150 kts 188°
2026-04-29 19:05 45.01199 4.98727 2149 ft 141 kts 188°
2026-04-29 19:05 45.00225 4.98542 1965 ft 143 kts 187°
2026-04-29 19:06 44.99252 4.98355 1783 ft 144 kts 188°
2026-04-29 19:06 44.98268 4.98157 1591 ft 141 kts 187°
2026-04-29 19:06 44.96380 4.97806 1225 ft 134 kts 189°
2026-04-29 19:07 44.95466 4.97635 1053 ft 131 kts 189°
2026-04-29 19:07 44.94873 4.97519 954 ft 130 kts 190°
2026-04-29 19:07 44.93671 4.97272 691 ft 130 kts 189°
2026-04-29 19:07 44.92786 4.97107 534 ft 124 kts 189°
2026-04-29 19:08 44.92062 4.96969 528 ft 77 kts 187°
2026-04-29 19:08 44.91702 4.96900 527 ft 42 kts 187°
2026-04-29 19:08 44.91566 4.96874 528 ft 8 kts 196°
2026-04-29 19:08 44.91557 4.96802 529 ft 8 kts 303°
2026-04-29 19:09 44.91568 4.96745 529 ft 7 kts 279°
2026-04-29 19:09 44.91587 4.96691 529 ft 6 kts
2026-04-29 19:09 44.91640 4.96702 529 ft 9 kts
2026-04-29 19:09 44.91710 4.96716 529 ft 11 kts
2026-04-29 19:10 44.91743 4.96717 529 ft 3 kts 299°
2026-04-29 19:10 44.91746 4.96676 529 ft 6 kts 279°
2026-04-29 19:10 44.91753 4.96609 529 ft 7 kts 277°
2026-04-29 19:10 44.91731 4.96578 529 ft 4 kts 186°
2026-04-29 19:11 44.91726 4.96577 529 ft 0 kts 189°